Carnival Glory — 3FPS9 — position and weather

sailwx.info

Track history (hours):
 
Tides and Currents Weather Stations Pressure Air Temp Water Temp Dewpoint Dewpoint Depression Visibility Wind Speed Wind Dir Waves Ship Positions

Carnival Glory

Operator: Carnival Cruise Lines

Last reported at 2017-Jul-22 18:29 UTC. Time now 2017-Jul-22 18:32 UTC.
Position N 25°47' W 080°10'.

Type: Passenger vessel. MMSI: 357659000.

Date/timePositionNaut miles runAvg speedWind from/ knotsBaromVisibWave heightAir tempDewpointWater temp
2017-Jul-22 18:29N 25°47' W 080°10'0 0.0
2017-Jul-22 17:59N 25°47' W 080°10'0 0.0
2017-Jul-22 17:29N 25°47' W 080°10'0 0.0
2017-Jul-22 16:59N 25°47' W 080°10'0 0.0
2017-Jul-22 16:29N 25°47' W 080°10'0 0.0
2017-Jul-22 15:59N 25°47' W 080°10'0 0.0
2017-Jul-22 15:29N 25°47' W 080°10'0 0.0
2017-Jul-22 15:00N 25°47' W 080°10'0 0.0
2017-Jul-22 13:57N 25°47' W 080°10'0 0.0
2017-Jul-22 13:30N 25°47' W 080°10'0 0.0
2017-Jul-22 13:00N 25°47' W 080°10'0 0.0
2017-Jul-22 12:30N 25°47' W 080°10'0 0.0
2017-Jul-22 11:57N 25°47' W 080°10'0 0.0
2017-Jul-22 11:30N 25°47' W 080°10'0 0.0
2017-Jul-22 11:00N 25°47' W 080°10'0 0.0
2017-Jul-22 10:30N 25°47' W 080°10'0 0.0
2017-Jul-22 10:00N 25°47' W 080°10'0 0.0
2017-Jul-22 09:30N 25°47' W 080°10'1 1.8
2017-Jul-22 09:00N 25°47' W 080°11'3 5.5
2017-Jul-22 08:30N 25°46' W 080°08'510.7
2017-Jul-22 08:00N 25°46' W 080°02'511.0
2017-Jul-22 07:30N 25°42' W 079°58'714.5
2017-Jul-22 07:00N 25°35' W 079°56'815.7
2017-Jul-22 06:30N 25°27' W 079°55'1020.7
2017-Jul-22 06:00N 25°17' W 079°56'47415.1
2017-Jul-20 22:36N 20°40' W 086°53'220.3
2017-Jul-20 22:30N 20°38' W 086°54'714.5
2017-Jul-20 22:00N 20°33' W 086°59'4 7.2
2017-Jul-20 21:30N 20°29' W 086°59'0 0.4
2017-Jul-20 20:58N 20°29' W 086°59'0 0.0
2017-Jul-20 20:28N 20°29' W 086°59'0 0.0
2017-Jul-20 19:58N 20°29' W 086°59'0 0.0
2017-Jul-20 19:28N 20°29' W 086°59'0 0.0
2017-Jul-20 18:58N 20°29' W 086°59'0 0.0
2017-Jul-20 18:25N 20°29' W 086°59'0 0.0
2017-Jul-20 17:58N 20°29' W 086°59'0 0.0
2017-Jul-20 17:28N 20°29' W 086°59'0 0.0
2017-Jul-20 16:58N 20°29' W 086°59'0 0.0
2017-Jul-20 16:28N 20°29' W 086°59'0 0.0
2017-Jul-20 15:58N 20°29' W 086°59'0 0.0
2017-Jul-20 15:28N 20°29' W 086°59'0 0.0
2017-Jul-20 14:58N 20°29' W 086°59'0 0.0
2017-Jul-20 13:58N 20°29' W 086°59'0 0.0
2017-Jul-20 13:25N 20°29' W 086°59'0 0.0
2017-Jul-20 12:58N 20°29' W 086°59'0 0.0
2017-Jul-20 12:28N 20°29' W 086°59'0 0.0
2017-Jul-20 11:55N 20°29' W 086°59'0 0.0
2017-Jul-20 11:28N 20°29' W 086°59'1 2.4
2017-Jul-20 11:00N 20°30' W 086°59'3 6.0
2017-Jul-20 10:30N 20°29' W 087°02'611.7
2017-Jul-20 10:01N 20°24' W 087°05'  
2017-Jul-15 23:07N 25°16' W 079°59'216.4
2017-Jul-15 23:00N 25°17' W 079°58'815.7
2017-Jul-15 22:30N 25°25' W 079°56'815.7
2017-Jul-15 22:00N 25°33' W 079°56'714.5
2017-Jul-15 21:31N 25°40' W 079°57'713.8
2017-Jul-15 21:01N 25°45' W 080°03'510.2
2017-Jul-15 20:30N 25°46' W 080°08'2 4.3
2017-Jul-15 20:00N 25°47' W 080°10'0 0.0
2017-Jul-15 19:30N 25°47' W 080°10'0 0.0
2017-Jul-15 18:57N 25°47' W 080°10'0 0.0
2017-Jul-15 18:30N 25°47' W 080°10'0 0.0
2017-Jul-15 18:00N 25°47' W 080°10'0 0.0
2017-Jul-15 17:27N 25°47' W 080°10'0 0.0
2017-Jul-15 17:00N 25°47' W 080°10'0 0.0
2017-Jul-15 16:30N 25°47' W 080°10'0 0.0
2017-Jul-15 16:00N 25°47' W 080°10'0 0.0
2017-Jul-15 15:30N 25°47' W 080°10'0 0.0
2017-Jul-15 15:00N 25°47' W 080°10'0 0.0
2017-Jul-15 14:00N 25°47' W 080°10'0 0.0
2017-Jul-15 13:30N 25°47' W 080°10'0 0.0
2017-Jul-15 13:00N 25°47' W 080°10'0 0.0
2017-Jul-15 12:27N 25°47' W 080°10'0 0.0
2017-Jul-15 12:00N 25°47' W 080°10'0 0.0
2017-Jul-15 11:30N 25°47' W 080°10'0 0.0
2017-Jul-15 11:00N 25°47' W 080°10'0 0.0
2017-Jul-15 10:30N 25°47' W 080°10'0 0.0
2017-Jul-15 10:00N 25°47' W 080°10'0 0.0
2017-Jul-15 09:30N 25°47' W 080°10'0 0.0
2017-Jul-15 09:00N 25°47' W 080°10'0 0.0
2017-Jul-15 08:30N 25°47' W 080°10'1 1.5
2017-Jul-15 08:01N 25°47' W 080°11'3 5.7
2017-Jul-15 07:30N 25°46' W 080°08'5 9.7
2017-Jul-15 07:00N 25°47' W 080°03'611.6
2017-Jul-15 06:30N 25°50' W 079°57'1019.2
2017-Jul-15 06:01N 25°55' W 079°48'918.8
2017-Jul-15 05:31N 25°59' W 079°39'1019.8
2017-Jul-15 05:01N 26°05' W 079°30'  
2017-Jul-12 21:37N 18°41' W 066°20'320.3
2017-Jul-12 21:29N 18°39' W 066°18'919.1
2017-Jul-12 21:00N 18°33' W 066°10'612.8
2017-Jul-12 20:31N 18°28' W 066°07'1 1.2
2017-Jul-12 19:55N 18°28' W 066°07'0 0.0
2017-Jul-12 19:25N 18°28' W 066°07'0 0.0
2017-Jul-12 18:55N 18°28' W 066°07'  
Track history (hours):
 
Tides and Currents Weather Stations Pressure Air Temp Water Temp Dewpoint Dewpoint Depression Visibility Wind Speed Wind Dir Waves Ship Positions

Carnival Glory

Operator: Carnival Cruise Lines

Last reported at 2017-Jul-22 18:29 UTC. Time now 2017-Jul-22 18:32 UTC.
Position N 25°47' W 080°10'.

Type: Passenger vessel. MMSI: 357659000.

Date/timePositionNaut miles runAvg speedWind from/ knotsBaromVisibWave heightAir tempDewpointWater temp
2017-Jul-22 18:29N 25°47' W 080°10'0 0.0
2017-Jul-22 17:59N 25°47' W 080°10'0 0.0
2017-Jul-22 17:29N 25°47' W 080°10'0 0.0
2017-Jul-22 16:59N 25°47' W 080°10'0 0.0
2017-Jul-22 16:29N 25°47' W 080°10'0 0.0
2017-Jul-22 15:59N 25°47' W 080°10'0 0.0
2017-Jul-22 15:29N 25°47' W 080°10'0 0.0
2017-Jul-22 15:00N 25°47' W 080°10'0 0.0
2017-Jul-22 13:57N 25°47' W 080°10'0 0.0
2017-Jul-22 13:30N 25°47' W 080°10'0 0.0
2017-Jul-22 13:00N 25°47' W 080°10'0 0.0
2017-Jul-22 12:30N 25°47' W 080°10'0 0.0
2017-Jul-22 11:57N 25°47' W 080°10'0 0.0
2017-Jul-22 11:30N 25°47' W 080°10'0 0.0
2017-Jul-22 11:00N 25°47' W 080°10'0 0.0
2017-Jul-22 10:30N 25°47' W 080°10'0 0.0
2017-Jul-22 10:00N 25°47' W 080°10'0 0.0
2017-Jul-22 09:30N 25°47' W 080°10'1 1.8
2017-Jul-22 09:00N 25°47' W 080°11'3 5.5
2017-Jul-22 08:30N 25°46' W 080°08'510.7
2017-Jul-22 08:00N 25°46' W 080°02'511.0
2017-Jul-22 07:30N 25°42' W 079°58'714.5
2017-Jul-22 07:00N 25°35' W 079°56'815.7
2017-Jul-22 06:30N 25°27' W 079°55'1020.7
2017-Jul-22 06:00N 25°17' W 079°56'47415.1
2017-Jul-20 22:36N 20°40' W 086°53'220.3
2017-Jul-20 22:30N 20°38' W 086°54'714.5
2017-Jul-20 22:00N 20°33' W 086°59'4 7.2
2017-Jul-20 21:30N 20°29' W 086°59'0 0.4
2017-Jul-20 20:58N 20°29' W 086°59'0 0.0
2017-Jul-20 20:28N 20°29' W 086°59'0 0.0
2017-Jul-20 19:58N 20°29' W 086°59'0 0.0
2017-Jul-20 19:28N 20°29' W 086°59'0 0.0
2017-Jul-20 18:58N 20°29' W 086°59'0 0.0
2017-Jul-20 18:25N 20°29' W 086°59'0 0.0
2017-Jul-20 17:58N 20°29' W 086°59'0 0.0
2017-Jul-20 17:28N 20°29' W 086°59'0 0.0
2017-Jul-20 16:58N 20°29' W 086°59'0 0.0
2017-Jul-20 16:28N 20°29' W 086°59'0 0.0
2017-Jul-20 15:58N 20°29' W 086°59'0 0.0
2017-Jul-20 15:28N 20°29' W 086°59'0 0.0
2017-Jul-20 14:58N 20°29' W 086°59'0 0.0
2017-Jul-20 13:58N 20°29' W 086°59'0 0.0
2017-Jul-20 13:25N 20°29' W 086°59'0 0.0
2017-Jul-20 12:58N 20°29' W 086°59'0 0.0
2017-Jul-20 12:28N 20°29' W 086°59'0 0.0
2017-Jul-20 11:55N 20°29' W 086°59'0 0.0
2017-Jul-20 11:28N 20°29' W 086°59'1 2.4
2017-Jul-20 11:00N 20°30' W 086°59'3 6.0
2017-Jul-20 10:30N 20°29' W 087°02'611.7
2017-Jul-20 10:01N 20°24' W 087°05'  
2017-Jul-15 23:07N 25°16' W 079°59'216.4
2017-Jul-15 23:00N 25°17' W 079°58'815.7
2017-Jul-15 22:30N 25°25' W 079°56'815.7
2017-Jul-15 22:00N 25°33' W 079°56'714.5
2017-Jul-15 21:31N 25°40' W 079°57'713.8
2017-Jul-15 21:01N 25°45' W 080°03'510.2
2017-Jul-15 20:30N 25°46' W 080°08'2 4.3
2017-Jul-15 20:00N 25°47' W 080°10'0 0.0
2017-Jul-15 19:30N 25°47' W 080°10'0 0.0
2017-Jul-15 18:57N 25°47' W 080°10'0 0.0
2017-Jul-15 18:30N 25°47' W 080°10'0 0.0
2017-Jul-15 18:00N 25°47' W 080°10'0 0.0
2017-Jul-15 17:27N 25°47' W 080°10'0 0.0
2017-Jul-15 17:00N 25°47' W 080°10'0 0.0
2017-Jul-15 16:30N 25°47' W 080°10'0 0.0
2017-Jul-15 16:00N 25°47' W 080°10'0 0.0
2017-Jul-15 15:30N 25°47' W 080°10'0 0.0
2017-Jul-15 15:00N 25°47' W 080°10'0 0.0
2017-Jul-15 14:00N 25°47' W 080°10'0 0.0
2017-Jul-15 13:30N 25°47' W 080°10'0 0.0
2017-Jul-15 13:00N 25°47' W 080°10'0 0.0
2017-Jul-15 12:27N 25°47' W 080°10'0 0.0
2017-Jul-15 12:00N 25°47' W 080°10'0 0.0
2017-Jul-15 11:30N 25°47' W 080°10'0 0.0
2017-Jul-15 11:00N 25°47' W 080°10'0 0.0
2017-Jul-15 10:30N 25°47' W 080°10'0 0.0
2017-Jul-15 10:00N 25°47' W 080°10'0 0.0
2017-Jul-15 09:30N 25°47' W 080°10'0 0.0
2017-Jul-15 09:00N 25°47' W 080°10'0 0.0
2017-Jul-15 08:30N 25°47' W 080°10'1 1.5
2017-Jul-15 08:01N 25°47' W 080°11'3 5.7
2017-Jul-15 07:30N 25°46' W 080°08'5 9.7
2017-Jul-15 07:00N 25°47' W 080°03'611.6
2017-Jul-15 06:30N 25°50' W 079°57'1019.2
2017-Jul-15 06:01N 25°55' W 079°48'918.8
2017-Jul-15 05:31N 25°59' W 079°39'1019.8
2017-Jul-15 05:01N 26°05' W 079°30'  
2017-Jul-12 21:37N 18°41' W 066°20'320.3
2017-Jul-12 21:29N 18°39' W 066°18'919.1
2017-Jul-12 21:00N 18°33' W 066°10'612.8
2017-Jul-12 20:31N 18°28' W 066°07'1 1.2
2017-Jul-12 19:55N 18°28' W 066°07'0 0.0
2017-Jul-12 19:25N 18°28' W 066°07'0 0.0
2017-Jul-12 18:55N 18°28' W 066°07'  

Dump ship's entire track history